Flight Track Log - Related Links

Times and Time Zones

All times are in EDT time to prevent confusion due to time zone crossing. See the AAY943 flight status page for this flight to view local times or setup timezone preferences in your user account.

Time Position Orientation Groundspeed Altitude Reporting Facility
EDT Latitude Longitude Course Direction KTS MPH feet Rate Location/Type
03:38PM 38.0147 -84.6322 191° South 158 182 2,600  Level Indianapolis Center
03:39PM 37.9678 -84.6442 191° South 273 314 4,300 2,000 Climbing Indianapolis Center
03:40PM 37.9042 -84.6214 164° South 240 276 6,700 2,323 Climbing Indianapolis Center
03:41PM 37.8361 -84.5914 161° South 254 292 9,100 2,081 Climbing Indianapolis Center
03:42PM 37.7622 -84.5506 156° South 283 326 11,000 1,548 Climbing Indianapolis Center
03:43PM 37.6744 -84.5064 158° South 332 382 12,300 1,854 Climbing Indianapolis Center
03:44PM 37.5564 -84.4661 165° South 373 429 14,800 2,293 Climbing Indianapolis Center
03:45PM 37.4575 -84.4075 155° Southeast 397 457 17,000 1,887 Climbing Indianapolis Center
03:46PM 37.3639 -84.3225 144° Southeast 414 476 18,700 1,742 Climbing Indianapolis Center
03:47PM 37.2689 -84.2369 144° Southeast 418 481 20,600 1,645 Climbing Indianapolis Center
03:48PM 37.1733 -84.1472 143° Southeast 426 490 22,100 1,317 Climbing Indianapolis Center
03:49PM 37.0639 -84.0886 157° South 430 495 23,300 1,317 Climbing Indianapolis Center
03:50PM 36.9278 -84.0494 167° South 429 494 24,800 823 Climbing Indianapolis Center
03:51PM 36.8122 -84.0144 166° South 429 494 25,000 97 Climbing Indianapolis Center
03:52PM 36.6931 -83.9756 165° South 438 504 25,000 435 Level Indianapolis Center
03:53PM 36.5736 -83.9403 167° South 441 507 25,900 1,239 Climbing Indianapolis Center
03:54PM 36.5025 -83.9225 169° South 439 505 26,900 1,267 Climbing Atlanta Center
03:55PM 36.3878 -83.8867 166° South 433 498 27,800 800 Climbing Atlanta Center
03:56PM 36.2814 -83.8533 166° South 433 498 28,500 850 Climbing Atlanta Center
03:57PM 36.1792 -83.8253 168° South 433 498 29,500 950 Climbing Atlanta Center
03:58PM 36.0539 -83.7869 166° South 428 493 30,400 750 Climbing Atlanta Center
03:59PM 35.9411 -83.7514 166° South 428 493 31,000 650 Climbing Atlanta Center
04:00PM 35.8264 -83.7161 166° South 428 493 31,700 550 Climbing Atlanta Center
04:01PM 35.7136 -83.6833 167° South 428 493 32,100 600 Climbing Atlanta Center
04:02PM 35.5967 -83.6531 168° South 428 493 32,900 450 Climbing Atlanta Center
04:03PM 35.4775 -83.6153 166° South 433 498 33,000 50 Climbing Atlanta Center
04:04PM 35.3628 -83.5828 167° South 433 498 33,000  Level Atlanta Center
04:05PM 35.2458 -83.5478 166° South 433 498 33,000  Level Atlanta Center
04:06PM 35.1142 -83.5131 168° South 433 498 33,000  Level Atlanta Center
04:07PM 34.9972 -83.4733 164° South 438 504 33,000  Level Atlanta Center
04:08PM 34.8781 -83.4414 168° South 438 504 33,000  Level Atlanta Center
04:09PM 34.7589 -83.4067 167° South 433 498 33,000  Level Atlanta Center
04:10PM 34.6419 -83.3697 165° South 433 498 33,000  Level Atlanta Center
04:11PM 34.5247 -83.3353 166° South 433 498 33,000  Level Atlanta Center
04:12PM 34.4078 -83.3011 166° South 433 498 33,000  Level Atlanta Center
04:13PM 34.2886 -83.2694 168° South 433 498 33,000  Level Atlanta Center
04:14PM 34.1694 -83.2353 167° South 433 498 33,000  Level Atlanta Center
04:15PM 34.0503 -83.2014 167° South 433 498 33,000  Level Atlanta Center
04:16PM 33.9436 -83.1725 167° South 433 498 33,000  Level Atlanta Center
04:17PM 33.8264 -83.1361 166° South 433 498 33,000  Level Atlanta Center
04:18PM 33.7072 -83.1050 168° South 438 504 33,000  Level Atlanta Center
04:19PM 33.5858 -83.0689 166° South 438 504 33,000 250 Level Atlanta Center
04:20PM 33.4644 -83.0353 167° South 438 504 33,500 500 Climbing Atlanta Center
04:21PM 33.3328 -83.0019 168° South 443 510 34,000 250 Climbing Atlanta Center
04:22PM 33.2114 -82.9661 166° South 448 516 34,000  Level Atlanta Center
04:23PM 33.0942 -82.9356 168° South 448 516 34,000  Level Atlanta Center
04:25PM 32.8219 -82.8603 167° South 440 506 34,000  Level Jacksonville Center
04:26PM 32.7050 -82.8283 167° South 435 501 34,000  Level Jacksonville Center
04:27PM 32.5944 -82.7964 166° South 440 506 34,000  Level Jacksonville Center
04:28PM 32.4756 -82.7644 167° South 440 506 34,000  Level Jacksonville Center
04:29PM 32.3586 -82.7328 167° South 440 506 34,000  Level Jacksonville Center
04:30PM 32.2394 -82.6986 166° South 440 506 34,000  Level Jacksonville Center
04:31PM 32.1183 -82.6644 167° South 440 506 34,000  Level Jacksonville Center
04:32PM 32.0014 -82.6328 167° South 440 506 34,000  Level Jacksonville Center
04:33PM 31.8822 -82.6014 167° South 440 506 34,000  Level Jacksonville Center
04:34PM 31.7611 -82.5944 177° South 435 501 34,000  Level Jacksonville Center
04:35PM 31.6400 -82.5900 178° South 435 501 34,000  Level Jacksonville Center
04:36PM 31.5169 -82.5831 177° South 441 507 34,000  Level Jacksonville Center
04:37PM 31.3936 -82.5739 176° South 441 507 34,000  Level Jacksonville Center
04:38PM 31.2558 -82.5717 179° South 441 507 34,000  Level Jacksonville Center
04:39PM 31.1367 -82.5625 176° South 441 507 34,000  Level Jacksonville Center
04:40PM 31.0114 -82.5556 177° South 441 507 34,000  Level Jacksonville Center
04:41PM 30.8903 -82.5514 178° South 441 507 34,000  Level Jacksonville Center
04:42PM 30.7672 -82.5419 176° South 441 507 34,000 -50 Level Jacksonville Center
04:43PM 30.6419 -82.5328 176° South 441 507 33,900 -150 Descending Jacksonville Center
04:44PM 30.5186 -82.5283 178° South 446 513 33,700 -600 Descending Jacksonville Center
04:45PM 30.3975 -82.5217 177° South 446 513 32,700 -950 Descending Jacksonville Center
04:46PM 30.2828 -82.5150 177° South 441 507 31,800 -850 Descending Jacksonville Center
04:47PM 30.1617 -82.5083 177° South 441 507 31,000 -400 Descending Jacksonville Center
04:48PM 30.0406 -82.5014 177° South 441 507 31,000  Level Jacksonville Center
04:49PM 29.9192 -82.4900 175° South 441 507 31,000  Level Jacksonville Center
04:50PM 29.7919 -82.4833 177° South 446 513 31,000  Level Jacksonville Center
04:51PM 29.6667 -82.4767 177° South 451 519 31,000  Level Jacksonville Center
04:52PM 29.5414 -82.4700 177° South 451 519 31,000  Level Jacksonville Center
04:53PM 29.4078 -82.4636 178° South 451 519 31,000  Level Jacksonville Center
04:54PM 29.2844 -82.4592 178° South 451 519 31,000  Level Jacksonville Center
04:55PM 29.1614 -82.4550 178° South 446 513 31,000  Level Jacksonville Center
04:56PM 29.0508 -82.5078 203° Southwest 429 494 31,000  Level Jacksonville Center
04:57PM 28.9447 -82.5722 208° Southwest 426 490 31,000  Level Jacksonville Center
04:58PM 28.8364 -82.6414 209° Southwest 443 510 31,000  Level Jacksonville Center
04:59PM 28.7300 -82.7078 209° Southwest 448 516 31,000  Level Jacksonville Center
05:00PM 28.6361 -82.7697 210° Southwest 448 516 31,000  Level Jacksonville Center
05:01PM 28.5297 -82.8336 208° Southwest 441 507 31,000  Level Jacksonville Center
05:02PM 28.4275 -82.8950 208° Southwest 436 502 31,000  Level Jacksonville Center
05:03PM 28.3211 -82.9608 209° Southwest 436 502 31,000  Level Jacksonville Center
05:04PM 28.2042 -82.9819 189° South 419 482 31,000  Level Jacksonville Center
05:04PM 28.1567 -82.9547 153° Southeast 419 482 31,000  Level Miami Center
05:05PM 28.0492 -82.8808 149° Southeast 413 475 31,000  Level Miami Center
05:06PM 27.9478 -82.8142 150° Southeast 437 503 31,000  Level Miami Center
05:07PM 27.8358 -82.7450 151° Southeast 450 518 31,000  Level Miami Center
05:08PM 27.7258 -82.6761 151° Southeast 450 518 31,000  Level Miami Center
05:09PM 27.6183 -82.6050 150° Southeast 456 525 31,000  Level Miami Center
05:10PM 27.4836 -82.5797 171° South 438 504 31,000  Level Miami Center
05:11PM 27.3606 -82.5758 178° South 444 511 31,000  Level Miami Center
05:12PM 27.2353 -82.5789 181° South 444 511 31,000  Level Miami Center
05:13PM 27.1119 -82.5844 182° South 444 511 31,000  Level Miami Center
05:14PM 26.9892 -82.5808 178° South 444 511 31,000  Level Miami Center
05:15PM 26.8703 -82.5261 158° South 437 503 31,000  Level Miami Center
05:16PM 26.7581 -82.4603 152° Southeast 442 509 31,000 -500 Level Miami Center
05:17PM 26.6456 -82.3967 153° Southeast 447 514 30,000 -1,000 Descending Miami Center
05:18PM 26.5331 -82.3336 153° Southeast 459 528 29,000 -1,000 Descending Miami Center
05:19PM 26.4289 -82.2731 152° Southeast 459 528 28,000 -950 Descending Miami Center
05:20PM 26.3206 -82.2147 154° Southeast 454 522 27,100 -900 Descending Miami Center
05:21PM 26.2103 -82.1450 150° Southeast 454 522 26,200 -1,000 Descending Miami Center
05:22PM 26.0936 -82.0797 153° Southeast 444 511 25,100 -1,300 Descending Miami Center
05:23PM 25.9831 -82.0172 153° Southeast 444 511 23,600 -1,500 Descending Miami Center
05:24PM 25.8869 -81.9644 154° Southeast 439 505 22,100 -1,600 Descending Miami Center
05:25PM 25.7722 -81.8975 152° Southeast 434 499 20,400 -1,250 Descending Miami Center
05:26PM 25.6842 -81.8500 154° Southeast 434 499 19,600 -800 Descending Miami Center
05:27PM 25.6147 -81.7411 125° Southeast 407 468 18,800 -1,100 Descending Miami Center
05:28PM 25.6083 -81.6167 93° East 373 429 17,400 -1,450 Descending Miami Center
05:29PM 25.6000 -81.4850 94° East 383 441 15,900 -1,200 Descending Miami Center
05:30PM 25.5908 -81.3786 95° East 370 426 15,000 -1,200 Descending Miami Center
05:31PM 25.5833 -81.2817 95° East 343 395 13,500 -1,500 Descending Miami Center
05:32PM 25.5778 -81.1825 94° East 323 372 12,000 -1,100 Descending Miami Center
05:33PM 25.5703 -81.0900 95° East 311 358 11,300 -643 Descending Miami Center
05:34PM 25.5628 -81.0531 103° East 311 358 11,100 -300 Descending Miami Center
05:34PM 25.5625 -80.9956 90° East 311 358 11,000 -71 Descending Miami Center
05:35PM 25.5539 -80.9214 97° East 304 350 11,000  Level Miami Center
05:36PM 25.5631 -80.8206 84° East 303 349 11,000  Level Miami Center
05:37PM 25.5736 -80.7381 82° East 302 348 11,000 -256 Level Miami Center
05:38PM 25.5886 -80.6464 80° East 304 350 10,500 -984 Descending Miami Center
05:39PM 25.6625 -80.6094 24° Northeast 291 335 9,000 -703 Descending Miami Center
05:40PM 25.7492 -80.5728 21° North 295 339 9,000 -281 Level Miami Center
05:41PM 25.8167 -80.5403 23° Northeast 250 288 8,400 -492 Descending Miami Center
05:42PM 25.8800 -80.5169 18° North 239 275 8,000 -677 Descending Miami Center
05:43PM 25.9517 -80.4936 16° North 245 282 7,000 -563 Descending Miami Center
05:45PM 26.0225 -80.4981 357° North 237 273 6,800 -800 Descending Miami Center
05:45PM 26.0714 -80.4672 30° Northeast 241 277 5,400 -931 Descending Miami Center
05:46PM 26.0772 -80.3981 85° East 219 252 5,000 -541 Descending Miami Center
05:48PM 26.0808 -80.3381 86° East 198 228 4,300 -1,033 Descending Miami Center
05:49PM 26.1128 -80.3042 44° Northeast 170 196 2,900 -1,266 Descending Miami Center
05:50PM 26.0847 -80.2550 122° Southeast 171 197 1,600 -1,164 Descending Miami Center

Login

Don't have an account? Register now (free) for customized features, flight alerts, and more!